Wind_Speed
29 31 30 31 32 31 31 31 31 32 34 35 36 36 37 39 40 40 40 40 40 39 38 38 38 39 39 39 38 38 38 38 38 37 37 37 36 35 35 35 36 36 35
27 29 31 30 30 30 30 31 31 32 32 32 33 34 36 37 38 39 38 38 38 38 37 37 38 38 39 38 38 37 37 37 37 36 37 37 36 35 35 35 35 35 35
26 26 28 29 30 30 30 30 30 31 32 32 33 33 35 36 37 38 38 37 37 37 37 36 37 37 37 36 36 37 37 37 37 36 36 36 36 35 35 35 35 34 34
25 25 25 27 29 29 29 30 30 30 31 32 32 33 34 35 36 37 37 37 36 36 37 37 37 36 36 36 36 37 37 38 37 36 35 34 36 36 36 35 34 34 34
24 24 24 26 28 28 28 29 29 30 31 31 32 33 34 34 34 36 36 35 36 35 36 37 37 36 36 36 36 35 36 36 36 36 35 35 34 35 35 35 34 34 34
23 24 24 25 26 27 27 28 27 28 29 30 31 32 32 32 32 33 34 34 35 34 34 34 35 35 35 34 34 34 35 35 35 36 36 36 35 35 35 35 35 35 34
24 24 25 26 26 26 26 26 27 27 28 28 29 30 30 31 31 32 32 33 33 33 33 33 33 33 33 33 33 34 34 34 34 35 35 35 35 35 35 35 35 34 33
24 25 26 26 26 26 27 27 27 28 28 29 29 29 29 29 29 30 31 31 31 33 34 34 34 35 35 34 35 34 34 34 34 35 35 34 34 34 34 34 33 32 32
25 25 26 26 26 26 27 27 27 27 27 28 29 29 29 29 29 30 30 31 32 33 34 35 35 35 35 34 34 35 35 35 35 34 35 34 34 34 34 33 32 31 31
26 26 27 27 26 26 27 27 27 27 27 27 28 29 30 30 30 30 31 32 33 33 34 35 36 35 35 34 34 35 36 36 35 33 33 33 34 34 34 33 32 31 31
27 27 27 27 27 28 28 28 28 29 29 29 30 31 31 31 31 31 32 33 34 34 34 35 36 36 36 35 34 34 35 35 35 34 33 33 33 33 33 32 32 32 31
27 28 28 28 29 29 29 29 29 30 30 31 31 31 32 32 32 32 33 33 34 34 35 36 37 36 36 36 35 34 34 34 34 34 33 33 33 33 33 32 32 31 30
26 27 28 28 29 29 29 29 30 30 30 31 31 31 32 32 33 34 34 34 34 35 36 37 37 36 36 35 35 34 34 34 34 34 34 34 33 33 32 32 31 29 28
25 26 27 27 28 29 29 30 30 31 31 31 31 31 32 32 33 33 34 35 36 36 36 36 36 35 35 34 34 34 33 33 33 33 33 33 32 31 30 30 29 29 28
26 26 26 27 27 28 29 30 30 31 31 31 31 31 32 32 32 33 34 35 35 35 35 34 34 34 33 33 33 33 32 32 31 32 32 31 30 29 29 29 28 28 28
28 27 28 28 29 29 29 29 30 32 32 32 32 32 32 32 33 34 34 34 34 34 33 32 32 32 32 32 32 32 31 30 29 30 29 28 28 28 28 27 27 27 27
30 29 29 29 30 31 31 31 31 32 33 33 33 33 33 33 33 33 34 33 33 32 32 31 31 31 31 31 31 30 30 29 28 28 28 27 27 27 27 26 26 25 26
30 31 31 31 31 32 33 33 32 33 33 33 34 33 33 32 32 32 32 32 31 31 31 30 30 30 30 30 31 31 30 29 28 28 27 27 26 27 26 25 25 24 24
31 31 32 32 32 33 33 33 33 33 33 32 32 32 32 32 31 31 31 30 30 30 30 30 30 29 29 29 29 30 30 29 28 27 27 26 25 25 25 24 23 22 21
31 31 32 32 32 32 32 32 32 32 32 32 31 31 30 30 30 30 29 29 29 30 30 29 29 29 29 28 28 28 28 28 28 27 26 25 25 24 23 22 21 20 19
30 30 31 32 32 32 32 32 32 32 32 31 31 30 30 29 29 29 28 28 28 29 29 29 29 29 28 27 27 27 27 27 27 26 25 24 23 22 21 21 20 19 18
30 30 30 31 31 31 32 32 32 32 31 30 29 29 29 28 27 27 27 27 27 27 28 28 28 28 27 26 25 25 25 25 25 24 24 23 22 20 19 19 19 18 17
29 29 30 30 30 29 30 30 31 31 30 28 28 27 27 27 27 27 27 27 27 27 27 27 27 27 26 25 25 24 24 24 23 22 21 21 20 20 19 19 18 17 17
29 29 29 29 28 28 29 29 29 29 28 27 27 27 26 26 26 27 26 26 26 26 26 25 25 25 24 24 24 23 23 22 22 20 20 20 20 19 18 18 18 17 17
29 29 28 28 28 28 28 28 28 28 27 27 26 26 26 26 26 26 25 25 25 24 24 23 23 23 23 22 22 21 22 22 21 20 20 20 19 18 18 17 17 17 16
28 28 28 28 28 28 27 27 27 27 27 26 26 26 25 25 25 24 24 24 23 23 22 22 22 22 21 21 20 19 20 20 21 20 20 19 19 18 18 17 17 17 16
Wind_Direction
255 253 254 255 255 256 258 259 261 263 262 261 259 258 257 257 257 258 259 261 261 261 262 265 266 267 268 270 271 272 273 274 275 276 278 280 283 285 286 287 289 291 293
259 255 255 257 258 258 259 261 263 264 266 265 265 262 259 258 258 258 259 260 259 260 262 264 266 267 268 270 271 271 272 273 274 275 276 278 280 284 285 287 289 290 292
261 258 256 256 260 262 261 263 266 267 266 264 266 265 265 262 261 259 260 259 259 260 262 264 266 266 268 269 270 271 271 272 273 275 276 277 279 282 284 287 289 290 292
262 261 260 259 260 263 264 267 268 267 266 266 267 267 267 266 263 262 262 261 261 261 261 263 266 267 268 269 270 271 271 271 271 273 276 277 278 280 283 285 287 289 292
260 259 259 261 263 265 267 267 268 268 267 267 268 268 268 269 267 264 263 262 261 261 262 264 265 267 268 269 270 271 271 271 270 272 274 276 278 279 282 283 285 287 290
261 259 262 264 266 267 268 268 268 267 267 267 268 269 269 269 268 266 263 262 262 262 262 263 264 266 268 268 269 269 270 272 273 274 275 276 278 280 281 283 285 286 287
264 261 263 266 266 267 268 268 268 268 268 269 269 270 269 269 268 267 266 264 262 262 263 263 263 265 268 269 270 269 271 273 274 275 276 276 278 280 281 283 284 285 286
266 265 266 266 265 268 268 269 270 268 268 268 269 271 271 271 271 269 267 265 264 264 263 263 263 264 267 271 270 269 271 273 275 276 276 276 277 278 279 280 282 284 285
265 266 267 266 265 267 267 269 268 268 269 270 269 271 272 272 272 270 268 267 267 264 263 264 264 265 267 269 269 269 271 272 274 275 276 276 276 277 279 280 281 282 284
265 266 267 267 267 266 267 269 271 272 273 274 273 273 274 273 271 269 268 268 268 266 264 264 264 266 268 268 269 270 271 272 272 273 275 276 276 276 277 279 281 282 283
264 266 267 267 268 269 271 273 274 275 276 277 276 275 274 272 270 269 269 269 269 268 266 265 266 266 266 267 269 270 271 272 273 273 274 276 277 276 277 278 281 281 282
266 267 268 268 269 272 273 274 275 276 276 277 277 276 274 272 271 269 269 269 270 269 268 267 267 267 266 267 270 270 271 272 272 272 273 275 276 277 277 277 279 281 281
269 269 269 269 270 271 272 274 276 277 278 277 277 277 275 273 272 271 269 269 270 270 269 268 267 268 267 267 269 270 270 270 271 272 273 276 276 277 277 275 276 278 280
274 272 272 271 271 271 273 275 277 278 279 279 278 278 275 274 274 272 270 270 270 271 270 269 267 266 267 267 268 269 270 271 272 273 274 276 276 277 276 276 274 275 277
275 274 272 272 272 273 275 277 279 280 282 281 280 279 277 275 274 273 272 272 271 271 271 269 267 266 266 266 266 267 269 269 271 273 274 274 274 275 274 274 274 273 275
276 275 274 274 273 275 277 277 278 280 281 280 280 281 279 276 275 275 273 272 271 270 270 268 266 266 265 264 264 266 268 268 269 270 272 273 272 272 272 273 274 274 274
276 275 275 275 275 275 277 278 279 280 281 281 280 281 280 278 277 276 273 272 270 268 268 267 265 265 265 264 264 265 266 267 267 268 270 271 271 271 271 272 273 274 274
276 276 276 277 277 276 277 279 279 281 281 281 280 280 279 279 277 275 273 271 270 268 266 265 266 267 268 267 264 264 265 266 266 267 268 269 270 270 270 272 273 274 273
278 278 278 279 279 279 279 279 280 281 282 281 280 279 278 278 277 274 271 270 269 267 266 266 267 268 269 268 266 265 264 264 265 265 266 267 268 270 269 270 270 270 269
279 279 279 280 281 281 279 279 280 281 282 281 280 279 278 277 277 275 272 269 269 268 266 266 266 267 269 269 267 265 263 263 264 264 264 264 265 266 266 266 266 265 265
281 280 280 280 281 281 281 279 280 280 281 280 280 279 277 275 275 273 272 270 269 267 267 266 266 267 268 268 266 263 262 263 263 261 261 260 260 262 263 263 261 262 261
283 283 283 282 282 282 281 280 280 280 280 279 278 278 276 274 273 272 271 270 269 267 267 266 266 267 266 264 263 262 261 260 260 258 257 255 255 257 259 259 258 258 255
283 284 285 284 284 283 282 282 281 282 280 277 276 276 276 274 273 273 272 271 270 268 267 266 265 264 263 262 261 258 257 256 255 253 252 251 251 253 253 252 252 252 250
283 284 285 285 285 284 283 283 283 282 280 277 277 277 275 273 272 273 273 272 270 269 267 265 264 262 261 261 259 256 254 252 251 249 247 247 247 248 247 247 245 246 246
283 284 285 285 285 284 283 283 283 281 279 277 277 277 275 273 273 273 271 271 270 270 269 266 263 260 259 257 255 253 251 248 246 245 244 243 243 242 242 241 239 240 241
284 284 285 285 285 285 284 283 281 280 278 277 276 277 275 273 271 271 270 270 269 269 268 266 262 258 255 252 251 249 245 243 242 242 240 239 240 239 238 237 236 237 237
Height
5655 5656 5658 5659 5661 5662 5663 5664 5665 5665 5666 5667 5668 5669 5670 5671 5672 5674 5675 5676 5678 5679 5680 5680 5681 5681 5681 5681 5681 5681 5680 5680 5680 5680 5678 5677 5675 5673 5670 5667 5664 5661 5657
5648 5649 5650 5652 5653 5654 5655 5655 5656 5656 5657 5657 5658 5659 5660 5661 5661 5663 5664 5665 5667 5668 5669 5670 5671 5671 5671 5671 5671 5671 5671 5670 5670 5670 5669 5668 5666 5664 5661 5658 5655 5652 5649
5642 5642 5643 5645 5646 5646 5647 5647 5647 5647 5648 5648 5649 5649 5650 5651 5652 5652 5653 5655 5657 5658 5659 5660 5660 5661 5661 5661 5661 5661 5660 5660 5660 5659 5659 5658 5657 5655 5652 5650 5647 5644 5640
5635 5635 5636 5637 5638 5638 5639 5639 5639 5639 5640 5640 5640 5641 5641 5641 5642 5642 5643 5645 5646 5648 5649 5650 5650 5651 5651 5651 5651 5651 5650 5650 5650 5649 5649 5648 5647 5645 5643 5641 5638 5635 5632
5628 5629 5629 5630 5631 5631 5631 5631 5631 5631 5632 5632 5632 5632 5632 5632 5632 5633 5634 5635 5636 5637 5638 5639 5640 5641 5641 5641 5641 5641 5641 5640 5640 5639 5639 5638 5637 5636 5634 5632 5630 5627 5624
5622 5622 5623 5623 5623 5624 5624 5623 5623 5623 5624 5623 5623 5623 5623 5623 5623 5624 5624 5625 5626 5627 5628 5629 5630 5631 5631 5631 5631 5631 5631 5630 5630 5629 5629 5628 5627 5626 5624 5622 5620 5618 5616
5615 5615 5616 5616 5616 5616 5616 5616 5615 5615 5615 5615 5615 5615 5615 5615 5614 5615 5615 5615 5616 5618 5619 5620 5621 5622 5622 5622 5621 5621 5620 5620 5620 5619 5619 5618 5617 5616 5615 5613 5611 5608 5606
5608 5608 5608 5608 5608 5608 5608 5608 5607 5607 5607 5607 5607 5607 5606 5606 5606 5606 5606 5606 5607 5608 5609 5610 5611 5611 5612 5612 5612 5611 5611 5610 5610 5609 5609 5608 5607 5605 5604 5603 5601 5599 5597
5600 5601 5601 5600 5600 5601 5601 5600 5600 5599 5599 5598 5598 5598 5598 5598 5597 5597 5597 5597 5598 5599 5599 5600 5600 5601 5601 5602 5601 5601 5601 5601 5600 5599 5598 5597 5596 5595 5594 5592 5591 5590 5588
5592 5593 5593 5593 5593 5593 5593 5592 5591 5591 5591 5590 5589 5589 5589 5588 5588 5588 5588 5589 5589 5589 5590 5590 5590 5591 5591 5591 5591 5591 5591 5590 5590 5589 5588 5587 5586 5585 5584 5582 5581 5580 5578
5585 5584 5584 5584 5584 5584 5584 5584 5583 5583 5582 5581 5581 5580 5580 5579 5579 5579 5579 5579 5579 5579 5579 5580 5580 5580 5580 5581 5581 5581 5580 5580 5579 5579 5578 5577 5576 5575 5574 5573 5571 5570 5569
5576 5576 5576 5576 5576 5575 5575 5575 5574 5574 5573 5572 5572 5571 5570 5570 5569 5569 5569 5568 5568 5568 5569 5569 5569 5569 5570 5570 5570 5570 5570 5569 5569 5569 5568 5567 5567 5565 5564 5563 5562 5560 5559
5568 5568 5567 5567 5567 5567 5566 5566 5565 5565 5564 5563 5562 5561 5561 5560 5559 5559 5559 5558 5558 5558 5558 5558 5558 5558 5559 5559 5559 5560 5559 5559 5559 5559 5559 5558 5557 5556 5554 5553 5552 5552 5550
5560 5560 5559 5558 5558 5558 5557 5557 5556 5555 5554 5553 5553 5552 5551 5550 5549 5548 5548 5548 5548 5547 5547 5547 5547 5547 5548 5548 5549 5549 5549 5549 5549 5549 5549 5548 5546 5546 5545 5544 5544 5543 5542
5552 5551 5551 5550 5549 5549 5548 5547 5546 5546 5544 5544 5543 5542 5541 5540 5539 5538 5537 5537 5537 5536 5536 5536 5537 5537 5538 5538 5538 5539 5539 5539 5539 5539 5539 5538 5537 5537 5536 5536 5535 5535 5534
5544 5543 5542 5541 5541 5540 5539 5538 5537 5536 5535 5533 5532 5532 5531 5530 5529 5528 5527 5526 5526 5526 5526 5526 5527 5527 5527 5528 5528 5529 5529 5529 5529 5529 5529 5529 5529 5528 5528 5527 5527 5527 5527
5535 5534 5533 5533 5532 5531 5530 5529 5528 5527 5525 5524 5522 5521 5520 5519 5518 5518 5517 5516 5516 5516 5516 5516 5517 5517 5517 5518 5518 5519 5519 5519 5520 5520 5520 5520 5520 5520 5520 5520 5520 5519 5519
5526 5525 5524 5523 5522 5521 5521 5520 5518 5517 5515 5514 5512 5511 5510 5509 5508 5507 5507 5506 5506 5506 5506 5506 5507 5507 5507 5508 5508 5509 5509 5510 5510 5511 5511 5512 5512 5512 5512 5512 5512 5512 5512
5517 5516 5515 5514 5513 5512 5511 5510 5508 5507 5505 5504 5502 5501 5499 5498 5498 5497 5497 5496 5496 5496 5496 5497 5497 5498 5498 5498 5498 5499 5499 5500 5501 5502 5502 5503 5504 5504 5505 5505 5505 5505 5505
5507 5506 5505 5504 5503 5502 5501 5499 5498 5497 5495 5494 5492 5491 5490 5488 5488 5487 5487 5487 5487 5487 5487 5487 5488 5488 5488 5488 5488 5489 5490 5491 5491 5492 5493 5495 5496 5496 5497 5498 5498 5498 5499
5498 5497 5495 5494 5493 5492 5491 5489 5488 5486 5485 5483 5482 5481 5480 5479 5478 5477 5477 5477 5477 5477 5477 5478 5478 5478 5479 5479 5479 5480 5481 5481 5482 5483 5485 5486 5488 5489 5490 5491 5491 5492 5493
5488 5487 5486 5485 5483 5482 5480 5479 5478 5476 5475 5473 5472 5471 5470 5469 5469 5468 5468 5468 5467 5467 5468 5468 5468 5469 5469 5470 5470 5471 5472 5473 5474 5475 5476 5478 5480 5482 5483 5484 5485 5486 5487
5479 5478 5476 5475 5473 5472 5470 5469 5468 5466 5465 5463 5462 5461 5460 5460 5459 5459 5459 5459 5458 5458 5458 5458 5459 5459 5460 5461 5461 5462 5463 5464 5466 5467 5469 5471 5473 5474 5476 5478 5479 5480 5481
5470 5468 5467 5465 5464 5462 5461 5459 5458 5456 5455 5454 5453 5452 5451 5451 5450 5450 5450 5449 5449 5449 5449 5449 5450 5451 5451 5452 5453 5454 5455 5457 5458 5460 5462 5464 5466 5468 5469 5471 5473 5475 5476
5460 5459 5458 5456 5454 5453 5451 5450 5448 5447 5446 5445 5444 5443 5442 5442 5442 5441 5441 5441 5441 5440 5440 5441 5441 5442 5443 5444 5445 5446 5448 5450 5451 5453 5455 5458 5460 5462 5464 5466 5467 5469 5471
5451 5450 5448 5447 5445 5444 5442 5441 5439 5438 5437 5436 5435 5435 5434 5433 5433 5433 5433 5433 5433 5433 5433 5433 5433 5434 5435 5436 5438 5439 5441 5443 5445 5447 5449 5452 5454 5456 5458 5460 5462 5464 5466